Location: Long Geng
(2.6167°N, 114.1333°E)
Time: 06:25:11
(UTC+00:00)

ATLAS 3B R/B - Pass Details

Date: 14 May 2021
Orbit: 1006 x 1189 km, 63.8° (Epoch: 10 June)

Event Time Altitude Azimuth Distance (km) Brightness Sun altitude
Exits shadow 21:32:01 11° 233° (SW) 2,703 4.2 -10.4°
Maximum altitude 21:37:26 32° 293° (WNW) 1,642 3.3 -9.2°
Drops below altitude 10° 21:43:08 10° 355° (N) 2,772 5.1 -7.8°
Sets 21:46:01 0° 5° (N) 3,729 5.9 -7.1°
